St. Cloud, MN

12:20 AM CST on December 13, 2019 (GMT -0600)
Saint Cloud Regional

Weather History for KSTC - November, 2019

Change the Weather History Date:

Tuesday, November 19, 2019

  Actual Average Record
Temperature  
Mean Temperature 38 °F 28 °F  
Max Temperature 45 °F 37 °F 59 °F (1924)
Min Temperature 32 °F 20 °F -6 °F (1911)
Degree Days  
Heating Degree Days 26 37  
Month to date heating degree days 731 597  
Since 1 July heating degree days 1582 1482  
Cooling Degree Days 0 0  
Month to date cooling degree days 0 0  
Year to date cooling degree days 452 465  
Moisture  
Dew Point 34 °F    
Average Humidity 92    
Maximum Humidity 100    
Minimum Humidity 76    
Precipitation  
Precipitation 0.08 in 0.05 in 0.96 in (1930)
Month to date precipitation 0.39 0.93  
Year to date precipitation 39.12 26.46  
Snow  
Snow 0.00 in 0.40 in 3.80 in (2011)
Month to date snowfall 0.5 4.5  
Since 1 July snowfall 1.0 5.3  
Since 1 September snowfall 1.0 5.3  
Snow Depth 0.00 in    
Sea Level Pressure  
Sea Level Pressure 29.77 in    
Wind  
Wind Speed 3 mph ()    
Max Wind Speed 15 mph    
Max Gust Speed 23 mph    
Visibility 5.5 miles    
Events Fog    
T = Trace of Precipitation, MM = Missing Value Source: Averaged Metar Reports

Daily Weather History Graph

Daily Weather History Graph

Search for Another Location

Airport or City:

Astronomy

Nov. 19, 2019 Rise Set
Actual Time 7:20 AM CST 4:42 PM CST
Civil Twilight 6:48 AM CST 5:14 PM CST
Nautical Twilight 6:11 AM CST 5:50 PM CST
Astronomical Twilight 5:36 AM CST 6:25 PM CST
Moon 11:42 PM CST (11/19) 1:29 PM CST (11/19)
Length of Visible Light 10h 26m
Length of Day
9h 21m
Waning Gibbous, 51% of the Moon is Illuminated
Nov 19
Waning Gibbous
Nov 19
Last Quarter
Nov 26
New
Dec 4
First Quarter
Dec 11
Full

Hourly Weather History & Observations

Time (CST) Temp. Windchill Dew Point Humidity Pressure Visibility Wind Dir Wind Speed Gust Speed Precip Events Conditions
12:34 AM 32.0 °F 27.5 °F 30.9 °F 96% 29.66 in 2.5 mi SSE 4.6 mph - 0.05 in   Overcast
12:53 AM 32.0 °F 28.7 °F 30.9 °F 96% 29.71 in 3.0 mi SSE 3.5 mph - 0.07 in   Overcast
1:24 AM 32.0 °F - 30.2 °F 93% 29.65 in 2.5 mi Calm Calm - N/A   Overcast
1:27 AM 32.0 °F - 30.9 °F 96% 29.65 in 3.0 mi Calm Calm - 0.01 in   Overcast
1:45 AM 32.0 °F 27.5 °F 30.9 °F 96% 29.65 in 2.5 mi SE 4.6 mph - 0.01 in   Overcast
1:53 AM 32.0 °F 27.5 °F 30.9 °F 96% 29.71 in 2.5 mi SSE 4.6 mph - 0.01 in   Overcast
2:09 AM 32.0 °F 28.7 °F 30.9 °F 96% 29.65 in 3.0 mi SE 3.5 mph - N/A   Overcast
2:24 AM 32.0 °F 27.5 °F 32.0 °F 100% 29.65 in 2.5 mi ESE 4.6 mph - N/A   Overcast
2:48 AM 32.0 °F - 32.0 °F 100% 29.65 in 2.5 mi Calm Calm - N/A   Overcast
2:53 AM 32.0 °F - 32.0 °F 100% 29.71 in 2.5 mi Calm Calm - N/A   Overcast
3:24 AM 32.0 °F 28.7 °F 32.0 °F 100% 29.65 in 1.8 mi SSE 3.5 mph - N/A   Overcast
3:53 AM 32.0 °F 27.5 °F 32.0 °F 100% 29.71 in 1.5 mi SE 4.6 mph - N/A   Overcast
4:15 AM 33.1 °F 30.0 °F 32.0 °F 96% 29.66 in 0.5 mi SW 3.5 mph - N/A Fog Fog
4:53 AM 33.1 °F - 32.0 °F 96% 29.73 in 0.5 mi Calm Calm - N/A Fog Fog
5:46 AM 33.1 °F - 33.1 °F 100% 29.67 in 0.2 mi Calm Calm - N/A Fog Fog
5:53 AM 33.1 °F - 33.1 °F 100% 29.73 in 0.2 mi Calm Calm - N/A Fog Fog
6:05 AM 33.1 °F - 32.0 °F 96% 29.68 in 0.5 mi Calm Calm - N/A Fog Fog
6:21 AM 33.1 °F 30.0 °F 32.0 °F 96% 29.68 in 0.5 mi SSE 3.5 mph - N/A Fog Fog
6:28 AM 33.1 °F - 32.0 °F 96% 29.68 in 0.5 mi Calm Calm - N/A Fog Fog
6:41 AM 33.1 °F - 33.1 °F 100% 29.69 in 0.5 mi Calm Calm - N/A Fog Fog
6:53 AM 33.1 °F - 33.1 °F 100% 29.75 in 0.5 mi Calm Calm - N/A Fog Fog
7:03 AM 33.1 °F - 33.1 °F 100% 29.70 in 0.8 mi Calm Calm - N/A   Overcast
7:14 AM 34.0 °F - 33.1 °F 96% 29.70 in 1.0 mi Calm Calm - N/A   Overcast
7:27 AM 34.0 °F 31.0 °F 33.1 °F 96% 29.70 in 2.5 mi West 3.5 mph - N/A   Overcast
8:49 AM 35.6 °F 29.9 °F 35.6 °F 100% 29.73 in 10.0 mi WNW 6.9 mph - N/A   Overcast
8:53 AM 36.0 °F 30.3 °F 35.1 °F 97% 29.79 in 10.0 mi WNW 6.9 mph - N/A   Overcast
9:29 AM 37.9 °F 32.1 °F 35.1 °F 89% 29.74 in 10.0 mi WNW 8.1 mph - N/A   Overcast
9:53 AM 39.0 °F 32.8 °F 36.0 °F 89% 29.81 in 10.0 mi WNW 9.2 mph - N/A   Overcast
10:23 AM 39.0 °F 32.8 °F 36.0 °F 89% 29.77 in 10.0 mi WNW 9.2 mph - N/A   Overcast
10:50 AM 39.2 °F 33.6 °F 37.4 °F 93% 29.77 in 10.0 mi WNW 8.1 mph - N/A   Overcast
10:53 AM 39.9 °F 33.4 °F 37.0 °F 89% 29.83 in 10.0 mi WNW 10.4 mph - N/A   Overcast
11:38 AM 41.0 °F 35.2 °F 37.0 °F 86% 29.78 in 10.0 mi WNW 9.2 mph - N/A   Overcast
11:53 AM 42.1 °F 36.1 °F 37.0 °F 82% 29.84 in 10.0 mi NW 10.4 mph - N/A   Overcast
12:53 PM 44.1 °F 39.0 °F 37.0 °F 76% 29.84 in 10.0 mi WNW 9.2 mph - N/A   Mostly Cloudy
1:02 PM 45.0 °F 40.1 °F 37.9 °F 76% 29.80 in 10.0 mi WNW 9.2 mph - N/A   Scattered Clouds
1:53 PM 43.0 °F 37.7 °F 37.0 °F 80% 29.87 in 10.0 mi NW 9.2 mph - N/A   Overcast
3:45 PM 39.9 °F 35.1 °F 35.1 °F 83% 29.86 in 10.0 mi NNW 6.9 mph - N/A   Overcast
3:53 PM 39.9 °F 35.8 °F 34.0 °F 79% 29.91 in 10.0 mi NW 5.8 mph - N/A   Overcast
4:15 PM 39.9 °F 33.4 °F 34.0 °F 79% 29.85 in 10.0 mi NW 10.4 mph - N/A   Overcast
4:53 PM 39.0 °F 32.3 °F 34.0 °F 82% 29.92 in 10.0 mi NW 10.4 mph - N/A   Overcast
5:53 PM 39.0 °F 36.8 °F 34.0 °F 82% 29.94 in 10.0 mi NNW 3.5 mph - N/A   Overcast
6:53 PM 39.0 °F - 34.0 °F 82% 29.96 in 10.0 mi Calm Calm - N/A   Overcast
8:53 PM 37.9 °F 34.4 °F 33.1 °F 83% 30.00 in 10.0 mi WNW 4.6 mph - N/A   Overcast
10:53 PM 36.0 °F 32.1 °F 33.1 °F 89% 30.01 in 10.0 mi South 4.6 mph - N/A   Overcast
11:53 PM 37.0 °F 34.5 °F 33.1 °F 86% 30.02 in 10.0 mi Variable 3.5 mph - N/A   Overcast